Mura





Hora UTC 06:15
Temperatura 2.7 ºC
Humitat 79.0 %
Pressió 1010.3 hPa
Pluja 0.0 mm
Velocitat vent 0.0 km/h
Direcció vent

Dades diàries 2022-12-01



Hora UTC (hivern +1h; estiu +2h)
Temperatura (ºC) Humitat (%) Pressió (hPa) Velocitat vent (km/h) Precipitació (mm)
Hora UTC Aire Humitat Pressió Vel. Dir. Vel. Max Dir. Intent. màx 5 min.
00:05 2.9 81.0 1010.9 0.0 0.0 0.0
00:15 2.6 82.0 1010.9 0.0 0.0 0.0
00:25 2.7 81.0 1010.8 0.0 0.0 0.0
00:35 2.6 82.0 1010.6 0.0 0.0 0.0
00:45 2.4 82.0 1010.6 0.0 0.0 0.0
00:55 2.4 81.0 1010.7 0.0 0.0 0.0
01:05 2.3 82.0 1010.6 0.0 0.0 0.0
01:15 2.4 81.0 1010.6 0.0 0.0 0.0
01:25 2.6 80.0 1010.4 0.0 0.0 0.0
01:35 2.6 80.0 1010.6 0.0 0.0 0.0
01:45 2.6 80.0 1010.6 0.0 0.0 0.0
01:55 3.1 79.0 1010.7 0.0 0.0 0.0
02:05 2.8 81.0 1010.7 0.0 0.0 0.0
02:15 2.9 79.0 1010.7 0.0 0.0 0.0
02:25 3.4 78.0 1010.4 0.0 0.0 0.0
02:35 3.4 79.0 1010.4 0.0 0.0 0.0
02:45 3.3 80.0 1010.4 0.0 0.0 0.0
02:55 3.5 79.0 1010.4 0.0 0.0 0.0
03:05 3.3 80.0 1010.3 0.0 0.0 0.0
03:15 3.2 80.0 1010.3 0.0 0.0 0.0
03:25 3.0 81.0 1010.3 0.0 0.0 0.0
03:35 2.7 81.0 1010.2 0.0 0.0 0.0
03:45 2.8 80.0 1010.2 0.0 0.0 0.0
03:55 2.8 80.0 1010.0 0.0 0.0 0.0
04:05 2.7 80.0 1010.0 0.0 0.0 0.0
04:15 2.5 80.0 1010.0 0.0 0.0 0.0
04:25 2.6 79.0 1010.0 0.0 0.0 0.0
04:35 2.6 80.0 1010.0 0.0 0.0 0.0
04:45 2.5 80.0 1010.0 0.0 0.0 0.0
04:55 2.6 79.0 1009.9 0.0 0.0 0.0
05:05 2.6 79.0 1009.9 0.0 0.0 0.0
05:15 2.6 79.0 1009.9 0.0 0.0 0.0
05:25 2.6 79.0 1009.8 0.0 0.0 0.0
05:35 2.6 79.0 1010.0 0.0 0.0 0.0
05:45 2.6 79.0 1010.0 0.0 0.0 0.0
05:55 2.6 79.0 1010.2 0.0 0.0 0.0
06:05 2.7 79.0 1010.3 0.0 0.0 0.0
06:15 2.7 79.0 1010.3 0.0 0.0 0.0
Màxima 3.6 82.0 1010.9 0.0 0.0 0.0
Mínima 2.3 78.0 1009.8
Total 0.0